Home   Weather   Shawinigan   Past weeks

Flag for Canada Past Weather in Shawinigan, Quebec, Canada — Yesterday and Last 2 Weeks

Now
52 °F

Cool.


Feels Like: 50 °F
Forecast: 40 / 53 °F
Wind: 7 mph from Northeast

Location: Shawinigan CS

Current Time: Apr 26, 2017 at 4:04:13 pm

Latest Report: Apr 26, 2017 at 3:00 pm


Visibility: N/A

Pressure: 29.91 "Hg

Humidity: 96%

Dew Point: 51 °F

Location of ShawiniganLocation

Past Weather in Shawinigan — Graph

°F

Shawinigan Temperature Yesterday

Maximum temperature yesterday: 54 °F (at 3:00 pm)
Minimum temperature yesterday: 31 °F (at 6:00 am)
Average temperature yesterday: 41 °F

High & Low Weather Summary for the Past Weeks

 TemperatureHumidityPressure
High61 °F (Apr 15, 5:00 pm)100% (Apr 12, 12:00 pm)30.50 "Hg (Apr 12, 12:00 pm)
Low25 °F (Apr 24, 6:00 am)19% (Apr 24, 5:00 pm)29.65 "Hg (Apr 16, 4:00 am)
Average42 °F72%30.09 "Hg
* Reported Apr 11 3:00 pm — Apr 26 3:00 pm, Shawinigan, Weather by CustomWeather, © 2017

Note: Actual official high and low records may vary slightly from our data, if they occured in-between our weather recording intervals... More about our weather records

Advertising

Shawinigan Weather History for the Previous 24 Hours

Scroll right to see more
 ConditionsComfort  
Time TempWeatherWind HumidityBarometerVisibility
3:00 pm
Wed, Apr 26
52 °FCool.7 mph96%29.91 "HgN/A
2:00 pm52 °FCool.6 mph95%29.92 "HgN/A
1:00 pm51 °FCool.7 mph95%29.93 "HgN/A
12:00 pm50 °FCool.6 mph92%29.95 "HgN/A
11:00 am48 °FCool.6 mph95%29.96 "HgN/A
10:00 am46 °FCool.6 mph97%29.97 "HgN/A
9:00 am45 °FCool.5 mph96%29.98 "HgN/A
8:00 am44 °FQuite cool.6 mph97%29.98 "HgN/A
7:00 am43 °FQuite cool.6 mph97%29.99 "HgN/A
6:00 am42 °FQuite cool.6 mph97%30.01 "HgN/A
5:00 am42 °FQuite cool.5 mph96%30.02 "HgN/A
4:00 am40 °FQuite cool.6 mph100%30.03 "HgN/A
3:00 am42 °FQuite cool.7 mph96%30.04 "HgN/A
2:00 am42 °FQuite cool.7 mph95%30.06 "HgN/A
1:00 am42 °FQuite cool.7 mph96%30.10 "HgN/A
12:00 am42 °FQuite cool.6 mph96%30.12 "HgN/A
11:00 pm
Tue, Apr 25
42 °FQuite cool.5 mph96%30.13 "HgN/A
10:00 pm42 °FQuite cool.5 mph96%30.15 "HgN/A
9:00 pm45 °FCool.6 mph92%30.15 "HgN/A
8:00 pm44 °FQuite cool.3 mph82%30.16 "HgN/A
7:00 pm46 °FCool.6 mph65%30.16 "HgN/A
6:00 pm49 °FCool.6 mph44%30.17 "HgN/A
5:00 pm52 °FCool.10 mph39%30.16 "HgN/A
4:00 pm53 °FCool.9 mph37%30.19 "HgN/A
Weather by CustomWeather, © 2017

See weather overviewHow to use our weather pages